Flag for Hungary Weather past 2 weeks in Miskolc, Hungary

Now
48 °F

Passing clouds.


Feels Like: 48 °F
Forecast: 44 / 57 °F
Wind: No wind

Location: Miskolc

Current Time: Mar 27, 2015 at 5:10:12 AM

Latest Report: Mar 27, 2015 at 3:00 AM


Visibility: 16 mi

Pressure: 29.76 "Hg

Humidity: 80%

Dew point: 42 °F

Location of MiskolcLocation

Historic Weather in Miskolc — Graph

°F

Miskolc temperature yesterday

Maximum temperature yesterday: 66 °F (at 2:00 PM)
Minimum temperature yesterday: 49 °F (at 11:00 PM)
Average temperature yesterday: 58 °F

Past Weeks' High & Low Weather Summary

 TemperatureHumidityPressure
High66 °F (Mar 26, 2:00 PM)92% (Mar 15, 7:00 AM)30.62 "Hg (Mar 15, 7:00 AM)
Low28 °F (Mar 23, 6:00 AM)22% (Mar 23, 2:00 PM)29.76 "Hg (Mar 27, 3:00 AM)
Average45 °F59%30.19 "Hg
* Reported Mar 12 3:00 AM — Mar 27 3:00 AM, Miskolc, Weather by CustomWeather, © 2015

Note: Actual official high and low records may vary slightly from our data, if they occured in-between our weather recording intervals... More about our weather records

Advertising

Miskolc weather history for previous 24 hours

 ConditionsComfort  
Time TempWeatherWind HumidityBarometerVisibility
3:00 AM
Fri, Mar 27
48 °FPassing clouds.No wind80%29.76 "Hg16 mi
2:00 AM48 °FPassing clouds.No wind78%29.77 "Hg16 mi
1:00 AM48 °FPassing clouds.No wind78%29.78 "Hg16 mi
12:00 AM48 °FPassing clouds.No wind76%29.80 "Hg16 mi
11:00 PM
Thu, Mar 26
49 °FPassing clouds.No wind76%29.80 "Hg16 mi
9:00 PM51 °FPassing clouds.1 mph70%29.79 "Hg16 mi
8:00 PM54 °FPassing clouds.1 mph65%29.79 "Hg19 mi
7:00 PM57 °FPassing clouds.1 mph58%29.78 "Hg19 mi
6:00 PM62 °FPassing clouds.No wind49%29.78 "Hg22 mi
5:00 PM64 °FOvercast.1 mph46%29.79 "Hg22 mi
4:00 PM64 °FOvercast.2 mph45%29.80 "Hg22 mi
3:00 PM65 °FOvercast.3 mph45%29.82 "Hg22 mi
2:00 PM66 °FOvercast.3 mph43%29.82 "Hg22 mi
1:00 PM64 °FOvercast.3 mph43%29.84 "Hg22 mi
12:00 PM64 °FPartly sunny.3 mph42%29.85 "Hg19 mi
11:00 AM63 °FScattered clouds.5 mph43%29.86 "Hg19 mi
10:00 AM61 °FScattered clouds.5 mph47%29.87 "Hg19 mi
9:00 AM59 °FPartly sunny.5 mph50%29.87 "Hg16 mi
8:00 AM55 °FScattered clouds.2 mph64%29.88 "Hg16 mi
7:00 AM51 °FPartly sunny.1 mph71%29.89 "Hg16 mi
6:00 AM52 °FOvercast.1 mph68%29.88 "Hg12 mi
5:00 AM52 °FOvercast.3 mph67%29.87 "Hg12 mi
Weather by CustomWeather, © 2015

See weather overviewHow to use our weather pages